Regional Weather Roundup
Issued by NWS

Home | Current Version | Previous Version | Graphics & Text | Print | Product List | Glossary On
Versions: 1 2 3 4 5 6 7 8 9 10 11 12 13 14 15 16 17 18 19 20 21 22 23 24 25 26 27 28 29 30 31 32 33 34 35 36 37 38 39 40 41 42 43 44 45 46 47 48 49 50
000
ASUS45 KTFX 290604
RWRMT
MONTANA HOURLY WEATHER ROUNDUP
NATIONAL WEATHER SERVICE GREAT FALLS MT
1104 PM MST WED JAN 28 2015

NOTE: "FAIR" INDICATES FEW OR NO CLOUDS BELOW 12000 FEET WITH NO
SIGNIFICANT WEATHER AND/OR OBSTRUCTIONS TO VISIBILITY.

* THESE STATIONS ARE NOT UNDER NWS QUALITY CONTROL. THEY DO NOT
   REPORT WEATHER SUCH AS PRECIPITATION OR FOG.

MTZ001>007-043-290700-
WEST OF THE DIVIDE
CITY           SKY/WX    TMP DP  RH WIND       PRES   REMARKS
KALISPELL      FOG       18  18 100 CALM      30.41R VSB 3/4
MISSOULA       CLEAR     30  25  82 CALM      30.43R
BUTTE          CLEAR     25  19  78 E3        30.40R
MULLAN PASS    CLEAR     27  25  92 S5        30.35R WCI  21
* ANACONDA     CLEAR     27  21  78 SW6        N/A   WCI  20
* ESSEX        N/A       23  22  96 N/A        N/A
* LINCOLN      N/A       23  20  88 N/A        N/A
* LOOKOUT PASS N/A       27  25  92 S1         N/A
* POLSON       N/A       30  25  82 N/A        N/A
* RONAN APT    CLEAR     30  28  92 N/A        N/A
* SEELEY LAKE  N/A       20  17  88 N2         N/A
* THOMP F APT  CLEAR     30  29  96 SW2        N/A
$$

MTZ008-052>055-290700-
SOUTHWEST MONTANA
CITY           SKY/WX    TMP DP  RH WIND       PRES   REMARKS
BOZEMAN        CLEAR     27  21  78 S6        30.40R WCI  20
DILLON         CLEAR     30  21  69 S8        30.38R WCI  22
* W YELLOWSTON PTCLDY    31  29  92 SW1G7      N/A
* THREE FORKS  CLEAR     28  28 100 N/A        N/A
* BOULDER HILL N/A       29  15  56 SW1        N/A
* MONIDA PASS  N/A       27  27 100 SE8        N/A   WCI  19
* RAYNOLDS PAS N/A       28   9  45 SE6        N/A   WCI  21
* WHITEHALL    N/A       28  20  72 N7         N/A   WCI  21
* WISE RIVER   N/A       25  18  75 S2         N/A
$$

MTZ009>010-012-014-046-048-049-054-290700-
EAST SLOPES AND CENTRAL MONTANA
CITY           SKY/WX    TMP DP  RH WIND       PRES   REMARKS
CUT BANK       FOG       25  25 100 S6        30.34S WCI  18
GREAT FALLS    CLEAR     28  27  96 CALM      30.37S
HELENA         CLEAR     30  21  69 CALM      30.39R
MALMSTROM AFB  FOG       28  27  96 SE5       30.39R WCI  22
* DEARBORN     N/A       31  27  85 S2         N/A
* EAST GLACIER N/A       30  21  69 W6G11      N/A   WCI  24
* MONARCH      N/A       28  22  78 E2         N/A
* PENDROY      N/A       27  27 100 S3         N/A
* ROGERS PASS  N/A       30  20  66 N2         N/A
* SWEET GRASS  N/A       29  29 100 S14        N/A   WCI  18
$$

MTZ011-013-016-021-035-040-045-047-050-051-290700-
NORTH CENTRAL MONTANA
CITY           SKY/WX    TMP DP  RH WIND       PRES   REMARKS
HAVRE          CLEAR     27  23  85 SW5       30.40R WCI  21
LEWISTOWN      CLEAR     27  25  92 SE8       30.38S WCI  19
* N BAR RANCH  CLEAR     30  25  82 W6        30.40R WCI  24
* CHESTER      N/A       26  24  92 N/A        N/A
* DENTON       N/A       25  24  96 SE4        N/A
* GEYSER       N/A       24  22  92 SW4        N/A
* JUDITH GAP   N/A       30  27  89 N2         N/A
* LOMA         N/A       27  26  96 SW3        N/A
$$

MTZ017>020-022>027-061-062-290700-
NORTHEAST MONTANA
CITY           SKY/WX    TMP DP  RH WIND       PRES   REMARKS
GLASGOW        CLEAR     28  25  89 NW9       30.38R WCI  19
GLENDIVE       CLOUDY    34  27  76 NW10      30.37R WCI  26
JORDAN         CLEAR     25  23  92 W7        30.39R WCI  17
SIDNEY         CLOUDY    34  23  64 NW15G21   30.37R WCI  24
WOLF POINT     FAIR      30  25  82 W8        30.39R WCI  22
* BEAVER HILL  N/A       32  25  75 NW15G21    N/A   WCI  22
* CIRCLE       N/A       30  27  89 N/A        N/A
* LINDSAY DVD  N/A       30  27  89 NW17       N/A   WCI  18
* NAVAJO       N/A       27  22  81 NW17G23    N/A   WCI  14
* SACO         N/A       24  22  92 N3         N/A
$$

MTZ028>042-056>058-290700-
SOUTHCENTRAL AND SOUTHEAST MONTANA
CITY           SKY/WX    TMP DP  RH WIND       PRES   REMARKS
BAKER          CLOUDY    32  28  85 NW14      30.33R WCI  22
BILLINGS       MOCLDY    37  28  70 CALM      30.41R
LIVINGSTON     PTCLDY    34  25  70 SE3       30.39R
MILES CITY     CLEAR     30  27  89 NW5       30.40R WCI  25
* LAUREL APT   PTCLDY    34  19  54 N/A        N/A
* ROUNDUP APT  PTCLDY    32  25  75 SW5        N/A   WCI  27
* ALZADA       N/A       31  26  82 W9G14      N/A   WCI  23
* HYSHAM       N/A       32  29  89 W2         N/A
* LAME DEER    N/A       28  23  81 NW4        N/A
* REED POINT   N/A       35  27  73 W1         N/A
$$

REGIONAL REPORTS...DAKOTAS
CITY           SKY/WX    TMP DP  RH WIND       PRES   REMARKS
WILLISTON      CLOUDY    30  27  89 N15G21    30.34R WCI  19
DICKINSON      CLOUDY    34  27  76 NW16G24   30.25R WCI  24
CROSBY         CLOUDY    25  25 100 N15G23    30.33R WCI  13
WATFORD CITY   CLOUDY    32  28  85 N18       30.29R WCI  21
BISMARCK       CLOUDY    34  27  76 NW17G26   30.24R WCI  23
GRAND FORKS    CLOUDY    25  19  78 N20       30.12R WCI  11
FARGO          CLOUDY    28  25  89 NW24G30   30.08R WCI  14
BUFFALO SD     PTCLDY    34  25  70 NW25G32   30.24R WCI  21
RAPID CITY     CLOUDY    34  27  76 N26G35    30.31R WCI  21
$$

REGIONAL REPORTS...WYOMING/IDAHO/WASHINGTON
CITY           SKY/WX    TMP DP  RH WIND       PRES   REMARKS
GILLETTE       PTCLDY    27  25  92 NW5       30.37R WCI  21
SHERIDAN       CLOUDY    36  28  73 W3        30.40R
CODY           CLOUDY    36  28  73 NW5       30.39R WCI  32
YELLOWSTONE LA PTCLDY    21  19  92 CALM      30.41R
SALMON         PTCLDY    19  19 100 CALM      30.43R
MULLAN PASS    CLEAR     27  25  92 S5        30.35S WCI  21
SAND POINT     FOG       32  32 100 CALM      30.46R VSB 1/2
SPOKANE        FOG       32  32 100 NE6       30.42R WCI  26
$$

REGIONAL REPORTS...ALBERTA
CITY           SKY/WX    TMP DP  RH WIND       PRES   REMARKS
MEDICINE HAT   FOG       27  27 100 S2        30.39R VSB 1 3/4

$$



USA.gov is the U.S. government's official web portal to all federal, state and local government web resources and services.